Location: Lussas
(44.6119°N, 4.4726°E)
Time: 13:32:40
(UTC+00:00)

SAR-Lupe-1 - Pass Details

Date: 23 April 2021
Orbit: 482 x 483 km, 98.2° (Epoch: 30 March)

Event Time Altitude Azimuth Distance (km) Brightness Sun altitude
Rises 19:03:39 0° 12° (NNE) 2,559 7.9 -5.2°
Reaches altitude 10° 19:05:43 10° 11° (NNE) 1,673 7.0 -5.6°
Maximum altitude 19:09:19 81° 284° (WNW) 496 4.2 -6.1°
Drops below altitude 10° 19:12:53 10° 198° (SSW) 1,659 6.7 -6.7°
Sets 19:14:55 0° 197° (SSW) 2,533 7.6 -7.0°
